Tracking 18984 objects as of 24-Feb-2018
HD Live streaming from Space Station
objects crossing your sky now

SJ-11-02

Track SJ-11-02 now!
10-day predictions
SJ-11-02 is classified as:


NORAD ID: 37765
Int'l Code: 2011-039A
Perigee: 687.8 km
Apogee: 703.4 km
Inclination: 98.4 °
Period: 98.5 minutes
Semi major axis: 7066 km
RCS: 2.5354 m2 (large)
Launch date: July 29, 2011
Source: People's Republic of China (PRC)
Launch site: Jiuquan Satellite Launch Center, China (JSC)

SJ-11-02 is a satellite developed by China Space Co., Ltd. under the China Aerospace Science and Technology Corporation, used to conduct scientific experiments in space.
aabbcc
Your satellite tracking list
Your tracking list is empty




NASA's NSSDC Master Catalog

Two Line Element Set (TLE):
1 37765U 11039A   18054.54080410 +.00000046 +00000-0 +19155-4 0  9997
2 37765 098.3995 206.9141 0011030 355.3919 004.7184 14.61448188350418
Source of the keplerian elements: AFSPC